Location: Eymir
(36.7333°N, 29.7833°E)
Time: 15:06:09
(UTC+00:00)

Cosmos 1302 Rocket - Visible Passes

Search period start: 19 April 2026 00:00
Search period end: 29 April 2026 00:00
Orbit: 753 x 771 km, 74.0° (Epoch: 19 April)

Date Brightness Start Highest point End Pass type
(mag) Time Alt. Az. Time Alt. Az. Time Alt. Az.
19 Apr 6.3 00:16:06 15° NNW 00:16:06 15° NNW 00:17:30 10° NNW visible
19 Apr 6.2 23:37:43 18° NNW 23:37:43 18° NNW 23:39:20 10° N visible
20 Apr 6.4 22:59:18 19° N 22:59:18 19° N 23:00:44 10° N visible
21 Apr 6.6 22:20:51 16° NNE 22:20:51 16° NNE 22:21:48 10° NNE visible
22 Apr 6.6 00:00:58 11° NW 00:00:58 11° NW 00:01:19 10° NNW visible
22 Apr 6.8 21:42:24 11° NE 21:42:24 11° NE 21:42:34 10° NE visible
22 Apr 6.4 23:22:30 15° NNW 23:22:30 15° NNW 23:23:49 10° NNW visible
23 Apr 6.4 22:44:01 18° N 22:44:01 18° N 22:45:28 10° N visible
24 Apr 6.5 22:05:30 18° NNE 22:05:30 18° NNE 22:06:45 10° NNE visible
25 Apr 6.6 21:26:57 14° NNE 21:26:57 14° NNE 21:27:44 10° NNE visible
25 Apr 6.6 23:07:04 12° NNW 23:07:04 12° NNW 23:07:58 10° NNW visible
26 Apr 6.4 22:28:30 17° NNW 22:28:30 17° NNW 22:30:03 10° N visible
27 Apr 6.3 21:49:53 20° N 21:49:53 20° N 21:51:34 10° N visible
28 Apr 6.2 21:11:15 20° NNE 21:11:15 20° NNE 21:12:45 10° NNE visible
